Location: ???????
(55.4362°N, 38.1183°E)
Time: 12:51:57
(UTC+00:00)

OPS 8737 - Visible Passes

Search period start: 23 October 2021 00:00
Search period end: 02 November 2021 00:00
Orbit: 356 x 1703 km, 63.3° (Epoch: 11 October)

Date Brightness Start Highest point End Pass type
(mag) Time Alt. Az. Time Alt. Az. Time Alt. Az.
23 Oct 6.1 16:13:59 10° NW 16:16:05 18° N 16:16:15 18° N visible
24 Oct 6.1 15:06:36 10° WNW 15:08:56 20° N 15:11:08 10° NE visible
24 Oct 6.8 16:56:16 10° NW 16:57:03 15° NNW 16:57:03 15° NNW visible
25 Oct 6.0 15:49:21 10° NW 15:51:29 18° N 15:52:06 17° NNE visible
26 Oct 6.0 14:41:59 10° WNW 14:44:17 19° N 14:46:28 10° NE visible
26 Oct 6.3 16:31:35 10° NW 16:32:55 19° NNW 16:32:55 19° NNW visible
27 Oct 6.0 15:24:42 10° NW 15:26:49 18° N 15:27:57 15° NE visible
27 Oct 7.4 17:13:29 10° NW 17:13:44 12° NW 17:13:44 12° NW visible
28 Oct 5.8 16:06:52 10° NW 16:08:46 23° N 16:08:46 23° N visible
29 Oct 5.9 15:00:00 10° NW 15:02:08 18° N 15:03:49 12° NE visible
29 Oct 6.7 16:48:45 10° NW 16:49:36 17° NW 16:49:36 17° NW visible
30 Oct 5.4 15:42:06 10° NW 15:44:34 25° NNE 15:44:39 25° NNE visible
31 Oct 5.9 14:35:14 10° NW 14:37:24 19° N 14:39:34 10° NE visible
31 Oct 5.8 16:23:58 10° NW 16:25:30 27° NNW 16:25:30 27° NNW visible
01 Nov 5.3 15:17:19 10° NW 15:19:48 26° NNE 15:20:36 23° NE visible
01 Nov 7.3 17:05:53 10° WNW 17:06:22 14° WNW 17:06:22 14° WNW visible
